www.pogodaiklimat.ru
ПОГОДА в Ла-Риохе

Архив погоды в Ла-Риохе (Аргентина)

Время
(UTC), дата
10 29.09
11 29.09
12 29.09
13 29.09
14 29.09
15 29.09
16 29.09
17 29.09
18 29.09
19 29.09
20 29.09
21 29.09
22 29.09
23 29.09
00 30.09
01 30.09
02 30.09
03 30.09
04 30.09
05 30.09
06 30.09
07 30.09
08 30.09
09 30.09
10 30.09
11 30.09
12 30.09
13 30.09
14 30.09
15 30.09
16 30.09
17 30.09
18 30.09
19 30.09
20 30.09
21 30.09
22 30.09
23 30.09
00 1.10
01 1.10
02 1.10
03 1.10
04 1.10
05 1.10
06 1.10
07 1.10
08 1.10
09 1.10
10 1.10
11 1.10
12 1.10
13 1.10
14 1.10
15 1.10
16 1.10
17 1.10
18 1.10
19 1.10
20 1.10
21 1.10
22 1.10
23 1.10
00 2.10
01 2.10
02 2.10
03 2.10
04 2.10
05 2.10
06 2.10
07 2.10
08 2.10
09 2.10
10 2.10
11 2.10
12 2.10
13 2.10
14 2.10
15 2.10
16 2.10
17 2.10
18 2.10
19 2.10
20 2.10
21 2.10
22 2.10
23 2.10
00 3.10
01 3.10
02 3.10
03 3.10
04 3.10
05 3.10
06 3.10
07 3.10
08 3.10
09 3.10
10 3.10
11 3.10
12 3.10
13 3.10
14 3.10
15 3.10
16 3.10
17 3.10
18 3.10
19 3.10
20 3.10
21 3.10
22 3.10
23 3.10
00 4.10
01 4.10
02 4.10
03 4.10
04 4.10
05 4.10
06 4.10
07 4.10
08 4.10
09 4.10
10 4.10
11 4.10
12 4.10
13 4.10
14 4.10
15 4.10
16 4.10
17 4.10
18 4.10
19 4.10
20 4.10
21 4.10
22 4.10
23 4.10
00 5.10
01 5.10
02 5.10
03 5.10
04 5.10
05 5.10
06 5.10
07 5.10
08 5.10
09 5.10
10 5.10
11 5.10
12 5.10
13 5.10
14 5.10
15 5.10
16 5.10
17 5.10
18 5.10
19 5.10
20 5.10
21 5.10
22 5.10
23 5.10
00 6.10
01 6.10
02 6.10
03 6.10
04 6.10
06 6.10
07 6.10
08 6.10
09 6.10
Ветер
(напр.,м/с)
Видим. Явления Облачность Т
(С)
Тd
(С)
f
(%)
Тe
(С)
Тes
(С)
Комфортность P
(гПа)
Po
(гПа)
Тmin
(С)
Tmax
(С)
R
(мм)
R24
(мм)
S
(см)
штиль 0 20 км в посл. час дождь 8/8 1200 м
[Sc]
+11.0 +11.0 100 +10 +10 1023.3 972.4
штиль 0 20 км {дождь} 8/8 1200 м
[Sc]
+10.8 +10.8 100 +10 +10 1023.6 972.6
штиль 0 20 км {дождь} 9/9 1350 м
[Cu Sc]
+12.0 +10.9 93 +11 +12 1023.8 972.9 +10.9 +13.2 0.5
штиль 0 20 км 9/9 1350 м
[Cu Sc]
+14.0 +11.5 85 +14 +15 1023.5 972.8
штиль 0 20 км 9/9 1050 м
[Cu hum]
+15.0 +12.2 83 +15 +16 1023.0 972.4
ЮВ 1 20 км 9/6 1050 м
[Cu med, cong As op]
+16.4 +11.4 72 +17 +20 1022.5 972.0
штиль 0 15 км осадки на расстоянии 10/8 1050 м
[Cu med, cong As op]
+16.2 +12.3 78 +16 +17 1022.0 971.4
С 2 15 км слаб. дождь 10/8 1200 м
[Cu med, cong As op]
+15.8 +12.6 81 +16 +16 1021.4 970.9
СВ 2 20 км в посл. час дождь 8/8 1350 м
[Cu Sc]
+17.2 +11.1 67 +18 +21 1020.1 969.8 0.0
З 2 20 км {дождь} 6/6 1200 м
[Cu med, cong]
+18.7 +11.9 65 +20 +25 1018.7 968.6
С 4 20 км 6/6 1350 м
[Cu hum]
+20.0 +10.8 55 +22 +24 комфорт 1017.8 967.8
С 2 20 км 6/6 1200 м
[Cu hum]
+19.4 +10.4 56 +21 +23 комфорт 1018.2 968.2
СЗ 2 20 км 4/4 1200 м
[Cu med, cong]
+18.6 +10.7 60 +20 +20 1018.5 968.2
З 3 20 км 4/4 1200 м
[Cu hum]
+16.6 +11.6 72 +17 +17 1018.8 968.4
З 3 20 км 6/6 1200 м
[Cu hum]
+15.2 +10.6 74 +15 +15 1019.1 968.6 +11.9 +20.6
З 3 20 км 6/6 1200 м
[Cu hum]
+14.0 +11.5 85 +13 +13 1019.7 969.3
З 2 20 км 6/6 1350 м
[Cu hum]
+13.8 +11.3 85 +13 +13 1019.8 969.5
штиль 0 20 км 3/3 1350 м
[Cu hum]
+13.8 +11.3 85 +13 +13 1019.9 969.7
З 3 20 км 1/1 1350 м
[Cu hum]
+11.0 +9.9 93 +9 +9 1019.8 969.3
З 3 20 км ясно +11.0 +9.1 88 +9 +9 1019.5 969.0
З 2 20 км ясно +10.4 +8.8 90 +9 +9 1018.7 968.2
З 3 20 км ясно +10.0 +8.4 90 +8 +8 1017.9 967.6
З 2 20 км ясно +10.2 +8.6 90 +9 +9 1017.1 967.0
З 2 20 км ясно +9.4 +8.2 92 +8 +8 1017.2 967.0
штиль 0 20 км ясно +9.2 +8.2 93 +8 +8 1017.9 967.6
штиль 0 20 км ясно +8.6 +8.0 96 +8 +8 1019.1 968.5
ЮЗ 2 20 км ясно +13.8 +8.8 72 +14 +17 1019.3 969.0 +7.9 +15.2 0.0
Ю 2 20 км ясно +16.8 +9.2 61 +17 +24 1019.1 969.0
С 1 20 км ясно +19.4 +11.1 59 +22 +36 комфорт 1018.7 968.8
ЮВ 1 20 км 1/1 1500 м
[Cu hum]
+21.0 +10.5 51 +24 +41 комфорт 1018.2 968.4
ЮВ 3 20 км 1/1 1500 м
[Cu hum]
+22.5 +10.1 45 +24 +38 комфорт 1017.6 967.8
Ю 3 20 км 1/1 1500 м
[Cu hum]
+23.9 +11.3 45 +25 +39 комфорт 1016.4 966.6
З 1 20 км 1/1 1500 м
[Cu hum]
+25.2 +11.3 42 +27 +43 жарко 1015.1 965.6
Ю 3 20 км 1/1 1500 м
[Cu hum]
+25.8 +11.0 39 +27 +35 жарко 1014.4 964.9
ЮВ 2 20 км 1/1 1500 м
[Cu hum]
+26.1 +11.0 39 +27 +33 жарко 1014.0 964.6
ЮВ 3 20 км 1/1 1500 м
[Cu hum]
+26.6 +8.4 32 +27 +29 жарко 1014.0 964.5
В 2 20 км 1/1 1500 м
[Cu hum]
+25.4 +9.3 36 +26 +26 жарко 1014.2 964.6
СЗ 1 20 км 1/1 1500 м
[Sc]
+21.9 +14.7 64 +25 +25 комфорт 1015.0 965.0
З 3 20 км ясно +17.3 +12.8 75 +17 +17 1015.5 965.6 +13.9 +27.3
З 2 20 км ясно +16.2 +12.1 77 +17 +17 1015.9 966.1
З 2 20 км ясно +15.4 +11.3 77 +15 +15 1016.3 966.6
З 3 20 км ясно +15.6 +10.3 71 +15 +15 1016.2 966.7
З 2 20 км ясно +15.1 +9.9 71 +15 +15 1015.8 966.4
З 2 20 км ясно +14.5 +9.2 70 +14 +14 1014.2 964.9
ЮЗ 2 20 км ясно +13.7 +9.1 74 +14 +14 1014.6 965.4
Ю 4 20 км ясно +13.3 +8.9 75 +12 +12 1014.3 965.0
ЮЗ 5 20 км ясно +12.8 +8.8 77 +11 +11 1014.4 965.2
Ю 3 20 км ясно +14.2 +7.8 65 +13 +13 1014.7 965.6
ЮЗ 5 20 км ясно +14.2 +7.5 64 +13 +13 1015.6 966.4
ЮЗ 3 20 км ясно +15.2 +4.9 50 +15 +15 1016.7 967.2
ЮЗ 4 20 км ясно +16.8 +7.1 53 +16 +19 1017.5 967.7 +12.7 +19.5
Ю 3 20 км ясно +18.8 +7.9 49 +19 +26 1017.2 967.7
Ю 2 20 км ясно +21.4 +9.5 47 +23 +35 комфорт 1017.0 967.4
З 2 20 км ясно +23.2 +8.9 40 +25 +42 комфорт 1016.5 967.1
ЮВ 2 20 км ясно +24.8 +9.6 38 +26 +44 жарко 1015.7 966.5
Ю 3 20 км ясно +26.2 +10.2 37 +27 +43 жарко 1014.1 965.0
ЮВ 2 20 км ясно +27.4 +8.6 31 +27 +44 жарко 1012.9 963.8
ЮЗ 3 20 км ясно +27.9 +9.4 31 +28 +39 жарко 1011.6 962.6
Ю 1 20 км ясно +28.6 +10.0 31 +29 +37 жарко 1011.3 962.4
ЮВ 2 20 км ясно +28.6 +7.9 27 +28 +31 жарко 1011.2 962.4
ЮЗ 2 20 км ясно +26.5 +7.4 30 +26 +27 жарко 1011.8 962.8
З 3 20 км ясно +22.7 +9.2 42 +24 +24 комфорт 1012.7 963.4
СЗ 2 20 км ясно +20.3 +10.9 55 +23 +23 комфорт 1014.1 964.6 +16.7 +29.5
З 2 20 км ясно +19.7 +11.0 57 +22 +22 комфорт 1015.2 965.8
З 2 20 км ясно +19.2 +11.3 60 +21 +21 комфорт 1015.8 966.6
З 3 20 км ясно +19.0 +11.2 61 +20 +20 1016.1 967.0
З 3 20 км ясно +18.3 +11.0 62 +19 +19 1015.7 966.6
З 2 20 км ясно +18.1 +11.0 63 +19 +19 1015.8 966.9
ЮЗ 2 20 км ясно +17.9 +10.9 64 +18 +18 1015.7 966.9
ЮЗ 5 20 км ясно +18.0 +10.8 63 +18 +18 1015.9 967.2
ЮЗ 5 20 км ясно +17.8 +10.8 64 +17 +17 1016.1 967.4
ЮЗ 5 20 км ясно +17.8 +8.4 54 +17 +17 1016.6 967.8
ЮЗ 5 20 км ясно +17.6 +6.7 49 +17 +17 1017.6 968.6
ЮЗ 4 20 км ясно +17.5 +7.3 51 +17 +18 1018.6 969.3
ЮЗ 5 20 км ясно +20.1 +7.0 43 +21 +23 комфорт 1018.6 969.3 +16.4 +20.3
Ю 4 20 км 1/1 1500 м
[Cu hum]
+22.6 +8.6 41 +24 +28 комфорт 1018.7 969.4
Ю 4 20 км 1/1 1500 м
[Cu hum]
+23.8 +8.6 38 +24 +33 комфорт 1018.6 969.4
ЮЗ 2 20 км 1/1 1500 м
[Cu hum]
+25.4 +10.2 38 +26 +42 жарко 1018.4 969.3
ЮЗ 3 20 км 1/1 1500 м
[Cu hum]
+27.2 +8.8 31 +27 +41 жарко 1017.3 968.5
Ю 2 20 км 1/1 1500 м
[Cu hum]
+28.8 +10.8 33 +29 +47 жарко 1015.8 967.0
ЮВ 3 20 км 1/1 1500 м
[Cu hum]
+29.5 +10.4 31 +30 +43 жарко 1014.1 965.6
Ю 3 20 км 1/1 1500 м
[Cu hum]
+30.4 +9.6 28 +30 +39 жарко 1013.0 964.6
В 2 20 км 1/1 1500 м
[Cu hum]
+30.5 +10.0 28 +30 +37 жарко 1012.0 963.6
СВ 3 20 км 1/0
[Ac trans]
+30.0 +10.7 30 +30 +32 жарко 1011.7 963.3
СЗ 2 20 км 1/0
[Ac trans]
+29.6 +12.4 35 +31 +31 жарко 1011.6 963.2
штиль 0 20 км 4/0
[Ac As]
+27.0 +16.1 51 +30 +30 душно 1012.4 963.7
В 3 20 км 4/0
[Ac As]
+25.0 +11.7 43 +26 +26 жарко 1013.8 965.0 +20.0 +30.7
штиль 0 20 км ясно +22.4 +13.7 58 +26 +26 жарко 1014.8 966.0
ЮЗ 1 20 км ясно +20.8 +12.2 58 +24 +24 комфорт 1015.2 966.2
З 3 20 км ясно +20.0 +11.2 57 +22 +22 комфорт 1015.0 966.2
З 3 20 км ясно +19.8 +12.2 62 +22 +22 комфорт 1015.4 966.8
З 2 20 км ясно +19.6 +11.5 59 +21 +21 комфорт 1013.8 965.4
штиль 0 20 км ясно +19.4 +11.7 61 +20 +20 1013.4 969.6
З 3 20 км ясно +18.1 +10.7 62 +19 +19 1012.6 964.2
З 2 20 км ясно +16.2 +9.9 66 +17 +17 1012.2 963.7
ЮЗ 4 20 км ясно +16.4 +8.9 61 +16 +16 1012.3 963.8
ЮЗ 4 20 км ясно +15.8 +8.6 62 +15 +15 1012.6 964.0
ЮЗ 5 20 км ясно +17.8 +6.0 46 +17 +18 1012.8 964.1
ЮЗ 4 20 км ясно +20.0 +4.4 36 +21 +23 комфорт 1012.9 964.2 +14.9 +25.2
ЮЗ 5 20 км ясно +21.8 +5.0 33 +22 +27 комфорт 1011.7 963.0
Ю 5 20 км 3/0
[Ci sp]
+23.0 +6.4 34 +24 +29 комфорт 1012.3 963.6
ЮЗ 3 20 км 3/0
[Ci sp]
+24.8 +7.6 33 +25 +38 комфорт 1010.7 962.1
Ю 4 20 км 3/0
[Ci sp]
+26.6 +9.4 34 +27 +40 жарко 1009.3 960.9
Ю 2 20 км 3/0
[Ci sp]
+27.8 +9.2 31 +28 +47 жарко 1007.3 959.0
ЮЗ 2 20 км 3/0
[Ci fib]
+29.6 +8.5 27 +29 +45 жарко 1005.3 957.3
С 3 20 км 9/0
[Ci fib]
+30.4 +8.8 26 +30 +38 жарко 1004.0 956.0
С 2 20 км ясно +30.8 +10.5 29 +31 +38 жарко 1003.3 955.2
СВ 4 20 км ясно +31.4 +9.4 26 +31 +33 жарко 1003.0 955.0
В 6 20 км 1/0
[Ci fib]
+28.5 +9.3 30 +28 +29 жарко 1003.9 955.6
В 3 10 км дым 1/0
[Ci fib]
+25.8 +9.9 37 +27 +27 жарко 1005.0 956.6
СЗ 2 15 км дым ясно +25.4 +8.3 34 +26 +26 жарко 1005.5 957.2 +19.9 +32.3
З 3 15 км дым ясно +24.5 +7.1 33 +25 +25 комфорт 1005.8 957.6
З 1 20 км ясно +23.2 +6.9 35 +24 +24 комфорт 1005.5 957.3
ЮЗ 3 20 км ясно +22.5 +6.7 36 +23 +23 комфорт 1004.9 956.8
ЮЗ 3 20 км ясно +21.4 +8.1 42 +22 +22 комфорт 1004.3 956.2
ЮЗ 4 20 км ясно +20.4 +9.8 51 +22 +22 комфорт 1003.8 955.8
ЮЗ 4 20 км ясно +20.2 +8.6 47 +22 +22 комфорт 1003.0 955.2
ЮЗ 4 20 км ясно +19.8 +8.5 48 +21 +21 комфорт 1002.7 954.9
ЮЗ 4 20 км ясно +19.4 +8.7 50 +20 +20 1002.4 954.6
ЮЗ 4 20 км ясно +18.1 +4.3 40 +18 +18 1003.3 955.4
ЮЗ 4 20 км ясно +17.4 +3.2 39 +17 +17 1004.2 956.0
Ю 4 20 км ясно +17.8 +3.2 38 +18 +18 1005.1 956.6
Ю 4 20 км 3/0
[Ci]
+19.3 +4.1 37 +20 +22 1005.4 957.0 +16.4 +25.6
Ю 4 20 км 3/0
[Ci]
+21.4 +4.3 33 +22 +26 комфорт 1005.3 957.0
Ю 5 20 км 3/0
[Ci]
+23.0 +4.1 29 +23 +29 комфорт 1005.1 956.9
Ю 3 20 км 3/0
[Ci]
+25.2 +4.9 27 +25 +37 комфорт 1004.3 956.2
ЮЗ 5 20 км 3/0
[Ci]
+27.0 +6.9 28 +27 +35 жарко 1003.1 955.2
ЮЗ 4 20 км 1/0
[Ci]
+29.0 +8.0 27 +28 +40 жарко 1001.5 953.7
Ю 3 20 км 1/0
[Ci]
+30.2 +11.5 32 +31 +45 жарко 1000.0 952.4
С 2 20 км 1/1 1500 м
[Cu hum]
+30.6 +11.6 31 +31 +42 жарко 998.6 951.0
С 4 20 км 3/3 1500 м
[Cu hum]
+31.6 +12.7 32 +32 +36 жарко 997.1 949.7
ЮЗ 3 20 км 1/1 1500 м
[Cu hum]
+31.6 +12.7 32 +32 +35 жарко 997.3 949.7
З 3 20 км 1/0
[Ac und]
+30.7 +13.6 35 +32 +32 жарко 1099.7 949.9
З 4 20 км 1/0
[Ac und]
+26.3 +12.2 42 +28 +28 жарко 999.0 950.9
С 2 20 км 1/0
[Ac und]
+23.0 +11.0 47 +25 +25 комфорт 1000.4 952.1 +19.1 +32.6
СЗ 3 20 км 1/0
[Ac und]
+22.1 +10.4 47 +24 +24 комфорт 1000.7 952.5
З 1 20 км 1/0
[Ac und]
+21.3 +10.1 49 +23 +23 комфорт 1001.1 952.9
З 3 20 км ясно +21.5 +11.0 51 +23 +23 комфорт 1000.6 952.6
ЮЗ 4 20 км ясно +21.2 +11.0 52 +23 +23 комфорт 1000.1 952.2
ЮЗ 4 20 км ясно +20.8 +10.7 52 +23 +23 комфорт 999.6 951.8
Ю 6 20 км ясно +22.4 +7.3 38 +23 +23 комфорт 999.5 952.1
ЮЗ 8 20 км ясно +21.9 +7.0 38 +23 +23 комфорт 1000.4 952.9
ЮЗ 8 20 км ясно +20.5 +8.7 47 +21 +21 комфорт 1001.5 953.8
Ю 6 10 км пыльный позёмок ясно +19.3 +9.0 51 +20 +20 1002.8 955.1
Ю 5 18 км пыльный позёмок ясно +18.4 +9.2 55 +18 +18 1004.3 956.4
ЮЗ 8 12 км пыльный позёмок туман 3/3 1500 м
[Cu hum]
+18.6 +8.5 52 +18 +18 1006.3 957.8
ЮЗ 10 10 км пыльный позёмок туман 3/3 1500 м
[Cu hum]
+18.8 +8.8 52 +18 +18 1008.0 959.3 +18.3 +23.2
ЮЗ 8 15 км пыльный позёмок 4/4 1500 м
[Cu hum]
+19.8 +9.2 50 +20 +21 1009.0 960.2
ЮЗ 10 15 км пыльный позёмок 6/6 1500 м
[Cu hum]
+21.4 +8.6 44 +23 +23 комфорт 1008.9 960.2
ЮЗ 9 15 км пыльный позёмок 6/6 1500 м
[Sc]
+21.4 +8.1 42 +22 +23 комфорт 1008.8 960.2
ЮЗ 7 15 км пыльный позёмок 6/6 1500 м
[Sc]
+21.8 +8.2 42 +23 +25 комфорт 1007.6 959.0
Ю 6 15 км пыльный позёмок 6/6 1500 м
[Sc]
+23.8 +7.6 35 +24 +27 комфорт 1006.2 957.8
Ю 5 15 км 6/6 1500 м
[Sc]
+23.0 +7.9 38 +24 +27 комфорт 1005.7 957.4
Ю 7 15 км 9/9 1500 м
[Sc]
+23.0 +7.9 38 +24 +24 комфорт 1006.6 958.2
ЮЗ 5 15 км осадки на расстоянии 9/9 1500 м
[Sc]
+20.8 +7.7 43 +22 +22 комфорт 1007.8 959.0
ЮЗ 6 15 км осадки на расстоянии 9/9 1500 м
[Sc]
+19.8 +7.3 44 +20 +20 1008.9 959.8
Ю 7 10 км гроза, ливневой дождь 9/4 1500 м
[Cb calv As op]
+18.9 +6.8 45 +19 +19 1010.9 961.7
Ю 4 15 км слаб. морось {гроза} 9/4 1500 м
[Cu Sc As op]
+15.7 +9.8 68 +15 +15 1012.4 962.9
штиль 0 20 км в посл. час морось {гроза} 10/10 1500 м
[Ns]
+15.5 +10.6 73 +15 +15 1013.4 963.8 +15.4 +25.5 1
штиль 0 20 км 10/10 1500 м
[Ns]
+14.3 +12.7 90 +14 +14 1014.3 964.6
СВ 3 20 км 10/10 1500 м
[Ns]
+14.3 +12.5 89 +13 +13 1014.7 965.2
штиль 0 20 км 10/0
[As op]
+14.2 +12.6 90 +14 +14 1014.4 964.9
З 3 20 км 6/0
[As trans]
+13.9 +12.3 90 +13 +13 1014.5 965.0
З 2 20 км 3/0
[As trans]
+12.5 +11.4 93 +12 +12 1013.7 964.2
ЮЗ 3 20 км 3/0
[As trans]
+12.3 +10.8 91 +11 +11 1013.2 963.7
штиль 0 20 км ясно +12.1 +10.8 92 +11 +11 1013.2 963.5
штиль 0 20 км ясно +10.7 +7.3 79 +10 +10 1013.4 963.5
Местоположение метеостанции Ла-Риоха (Аргентина): широта -29.38 долгота -66.81 высота над уровнем моря 429 м.
В архиве по умолчанию представлена погода в Ла-Риохе за последнюю неделю. Архивные данные за месяц целиком и за предыдущие месяцы, начиная с января 2011 года, Вы можете получить, выбрав интересующий диапазон дат из раскрывающегося списка и нажав кнопку "Найти!".
*Определитесь, кто Вы:
Внимание! Время в таблицах - всемирное. Для получения местного времени необходимо прибавить поправку, которая равна -3 ч.
Смотрите также архив погоды в соседних городах и на ближайших метеорологических станциях:
Партнеры нашего сайта:      
Пояснения к столбцам:
  • Ветер - указаны скорость ветра в м/с - средняя за 10 мин, порывы в срок и между сроками (в фигурных скобках) и направление, откуда дует ветер: С - северный,
  • СВ - северо-восточный, В - восточный, ЮВ - юго-восточный, Ю - южный, ЮЗ - юго-западный, З - западный, СЗ - северо-западный.
  • Видимость - горизонтальная дальность видимости в метрах или километрах. При видимости от 1 до 10 км при отсутствии осадков обычно наблюдается дымка, при ухудшении видимости до 1 км и менее - туман. В сухую погоду видимость может ухудшаться дымом, пылью или мглою.
  • Явления - указаны атмосферные явления, наблюдавшиеся в срок или в последний час перед сроком; фигурными скобками обозначены явления, наблюдавшиеся между сроками (за 1-3 часа до срока); квадратными скобками обозначены град или гололедные отложения с указанием их диаметра в мм.
  • Облачность - указаны через наклонную черту общая и нижняя облачность в баллах и высота нижней границы облаков в метрах; квадратными скобками обозначены формы облаков: Ci - перистые, Cs - перисто-слоистые, Cc - перисто-кучевые, Ac - высококучевые, As - высокослоистые, Sc - слоисто-кучевые, Ns - слоисто-дождевые, Cu - кучевые, Cb - кучево-дождевые. Подробнее классификацию облаков см. в Атласе облаков (PDF).
  • T - Температура воздуха - температура, измеренная на высоте 2 м над землей.
  • Td - Температура точки росы - температура, при понижении до которой содержащийся в воздухе водяной пар достигнет насыщения.
  • f - Относительная влажность воздуха - влажноcть воздуха, измеренная на высоте 2 м над землей.
  • Te - Эффективная температура - температура, которую ощущает одетый по сезону человек в тени. Характеристика душности погоды. При расчете учитывается влияние влажности воздуха и скорости ветра на теплоощущения человека.
  • Tes - Эффективная температура на солнце - температура, которую ощущает человек, с поправкой на солнечный нагрев. Характеристика знойности погоды. Зависит от высоты солнца над горизонтом, облачности и скорости ветра. Ночью, в пасмурную погоду, а также при ветре 12 м/с и более поправка равна нулю.
  • P - Атмосферное давление - приведенное к уровню моря атмосферное давление.
  • Po - Атмосферное давление - измеренное на уровне метеостанции атмосферное давление.
  • Tmin - Минимальная температура - минимум температуры воздуха на высоте 2 м над землей.
  • Tmax - Максимальная температура - максимум температуры воздуха на высоте 2 м над землей.
  • R - Количество осадков - Количество выпавших осадков за период времени, мм. При наведении курсора мыши на число - период времени, за который выпало указанное количество осадков.
  • R24 - Количество осадков - Количество выпавших осадков за 24 часа, мм.
  • S - Снежный покров - Высота снежного покрова, см. При наведении курсора мыши на число - состояние снежного покрова и степень покрытия местности в баллах.